sat.trackr.live / text

‹ back to catalog

STARLINK-4397

NORAD 53205 · 2022-084S

PAYLOAD ACTIVE UNKNOWN

§ Identity

Operator
Country
US
Launch date
2022-07-22
Launch site
AFWTR
Launch vehicle
Mass (kg)
RCS (m²)

Purposes: comms

External: N2YO · Heavens-Above · Gunter

§ Orbital elements

Epoch: 2026-09-20T00:00:53.322624Z

Period
93.91 min
Inclination
97.2836°
Eccentricity
0.0001524
Mean motion
15.33436317 rev/d
Perigee alt
464.5 km
Apogee alt
466.6 km
Semi-major
6,843.7 km
B*
1.5374e-5
RAAN
318.7389°
Arg perigee
96.0678°
Mean anomaly
264.0738°
Rev number
22,867

§ Raw data

STARLINK-43971 53205U 22084S   26263.00061716  .00000421  00000+0  15374-4 0  99912 53205  97.2836 318.7389 0001524  96.0678 264.0738 15.33436317228670

JSON: /api/v1/satellites/53205 · /tle

For live sub-satellite position, see the globe view (requires WebGL).

§ Visibility from observer

Set your observer location to see the next 7 days of passes ≥ 10°. The values pass through the URL so the page stays shareable.

No JS? Fill the form by hand. The geolocation button needs JavaScript.